Terminal Aerodrome Forecast
Issued by NWS Charleston, WV

Current Version | Previous Version | Graphics & Text | Print | Product List | Glossary On
Versions: 1 2 3 4 5 6 7 8 9 10 11 12 13 14 15 16 17 18 19 20 21
000
FTUS41 KRLX 170200 AAA
TAFHTS
TAF AMD
KHTS 170243Z 1703/1724 00000KT P6SM SCT080
     FM170500 00000KT 3SM BR SCT150
      TEMPO 1705/1706 2SM BR SCT001
     FM170600 00000KT 1/2SM FG BKN001
     FM171300 00000KT 2SM BR SCT001
     FM171400 00000KT P6SM FEW040
     FM172100 VRB03KT P6SM SCT040=

USA.gov is the U.S. government's official web portal to all federal, state and local government web resources and services.